Location: Grieser Field
(39.7333°N, 81.7975°W)
Time: 17:23:47
(UTC-05:00)

Hubble Space Telescope - Visible Passes

Search period start: 29 January 2015 00:00
Search period end: 08 February 2015 00:00
Orbit: 544 x 548 km, 28.5° (Epoch: 28 January)

Date Brightness Start Highest point End Pass type
(mag) Time Alt. Az. Time Alt. Az. Time Alt. Az.
29 Jan 3.1 19:52:47 10° SSW 19:54:34 15° S 19:54:34 15° S visible
30 Jan 2.9 19:44:33 10° SW 19:47:07 17° S 19:47:07 17° S visible
31 Jan 2.8 19:36:22 10° SW 19:39:09 17° S 19:39:40 17° S visible
01 Feb 2.9 19:28:15 10° SW 19:31:03 17° S 19:32:13 16° SSE visible
02 Feb 3.0 19:20:12 10° SW 19:22:56 17° S 19:24:48 13° SSE visible
03 Feb 3.1 19:12:13 10° SW 19:14:49 16° S 19:17:23 10° SSE visible
04 Feb 3.3 19:04:18 10° SW 19:06:40 15° S 19:09:01 10° SSE visible
05 Feb 3.4 18:56:31 10° SW 18:58:32 13° SSW 19:00:31 10° SSE visible
06 Feb 3.5 18:48:57 10° SW 18:50:22 11° SSW 18:51:44 10° S visible
